1505833201.03,5572,14.31,73354.3,-0.37,-1.39,-1.39,0,*51
1505833202.27,5573,14.31,73356.3,-0.37,-1.47,-1.47,0,*50
1505833203.45,5574,14.38,73358.8,-0.37,-1.59,-1.63,0,*5E
1505833204.62,5575,14.31,73358.3,-0.37,-1.59,-1.59,0,*56
1505833205.86,5576,14.31,73358.5,-0.37,-1.47,-1.47,0,*55
1505833207.13,5577,14.31,73358.3,-0.39,-1.39,-1.39,0,*5A
1505833208.39,5578,14.31,73362.0,-0.39,-1.35,-1.35,0,*55
1505833209.65,5579,14.31,73358.3,-0.39,-1.39,-1.43,0,*59
1505833210.92,5580,14.31,73356.8,-0.43,-1.39,-1.43,0,*52
1505833212.13,5581,14.31,73360.3,-0.43,-1.29,-1.21,0,*56
1505833213.35,5582,14.31,73358.5,-0.43,-1.21,-1.21,0,*5D
1505833214.6,5583,14.31,73362.0,-0.39,-1.13,-1.13,0,*51
1505833215.86,5584,14.31,73358.8,-0.39,-1.09,-1.09,0,*56
1505833217.07,5585,14.31,73360.8,-0.43,-1.17,-1.17,0,*5A
1505833218.28,5586,14.31,73362.0,-0.43,-1.17,-1.17,0,*59
1505833219.54,5587,14.31,73362.5,-0.39,-1.01,-1.01,0,*55
1505833220.8,5588,14.31,73364.5,-0.39,-1.01,-1.09,0,*52
1505833222.06,5589,14.31,73362.5,-0.39,-1.13,-1.13,0,*5B
1505833223.24,5590,14.38,73360.8,-0.37,-1.17,-1.25,0,*5C
1505833224.46,5591,14.31,73362.5,-0.39,-1.17,-1.17,0,*52
1505833225.71,5592,14.31,73358.3,-0.39,-1.09,-1.13,0,*5A
1505833226.96,5593,14.31,73356.8,-0.39,-1.09,-1.13,0,*5B
1505833228.22,5594,14.31,73360.5,-0.39,-1.01,-1.01,0,*57
1505833229.48,5595,14.31,73356.8,-0.39,-1.13,-1.13,0,*56
1505833230.74,5596,14.38,73358.8,-0.39,-1.13,-1.09,0,*5E
1505833232.0,5597,14.31,73356.5,-0.39,-1.01,-1.01,0,*54
1505833233.24,5598,14.31,73354.3,-0.39,-0.89,-0.89,0,*5B
1505833234.48,5599,14.31,73354.3,-0.37,-1.13,-1.09,0,*5F
1505833235.71,5600,14.31,73352.0,-0.37,-1.01,-1.01,0,*57
1505833236.94,5601,14.31,73352.3,-0.37,-1.09,-1.09,0,*56
1505833238.16,5602,14.31,73350.3,-0.37,-1.01,-0.97,0,*6B
1505833239.42,5603,14.38,73356.0,-0.39,-1.09,-1.09,0,*5A
1505833240.68,5604,14.31,73354.3,-0.39,-1.13,-1.09,0,*56
1505833241.9,5605,14.31,73358.8,-0.37,-1.09,-1.13,0,*59
1505833243.16,5606,14.31,73344.0,-0.35,-1.09,-1.09,0,*53
1505833244.35,5607,14.31,73346.8,-0.37,-1.17,-1.17,0,*50
1505833245.56,5608,14.31,73348.8,-0.37,-1.17,-1.13,0,*5B
1505833246.77,5609,14.38,73358.0,-0.37,-1.17,-1.09,0,*51
1505833247.99,5610,14.31,73352.8,-0.37,-0.97,-0.97,0,*56
1505833249.22,5611,14.31,73354.8,-0.37,-1.09,-1.01,0,*5F
1505833250.48,5612,14.38,73358.8,-0.39,-1.09,-1.01,0,*52
1505833251.73,5613,14.31,73354.5,-0.39,-1.13,-1.13,0,*5B
1505833252.95,5614,14.31,73354.8,-0.39,-1.17,-1.17,0,*5C
1505833254.17,5615,14.31,73358.0,-0.39,-1.17,-1.17,0,*5D
1505833255.38,5616,14.31,73358.0,-0.39,-1.17,-1.17,0,*5E
1505833256.61,5617,14.31,73356.8,-0.37,-1.01,-0.97,0,*6F
1505833257.83,5618,14.31,73356.5,-0.37,-0.97,-0.97,0,*5E
1505833259.06,5619,14.31,73356.8,-0.37,-0.97,-0.97,0,*5F
1505833260.28,5620,14.31,73350.5,-0.37,-1.01,-0.97,0,*6B
1505833261.51,5621,14.31,73358.5,-0.37,-1.09,-1.09,0,*54
1505833262.74,5622,14.38,73356.3,-0.37,-1.13,-1.09,0,*5C
1505833263.97,5623,14.31,73354.3,-0.37,-1.09,-1.01,0,*5E
1505833265.2,5624,14.31,73354.8,-0.37,-0.97,-1.01,0,*6F
1505833266.43,5625,14.31,73356.5,-0.37,-1.09,-1.09,0,*50
1505833267.66,5626,14.31,73356.0,-0.37,-0.97,-0.97,0,*53
1505833268.89,5627,14.31,73352.3,-0.37,-1.01,-1.01,0,*52
1505833270.12,5628,14.31,73356.5,-0.37,-1.13,-1.13,0,*5D
1505833271.38,5629,14.31,73356.0,-0.35,-1.05,-0.97,0,*64
1505833272.58,5630,14.31,73356.0,-0.35,-1.25,-1.33,0,*51
1505833273.77,5631,14.31,73358.0,-0.37,-1.17,-1.17,0,*55
1505833275.0,5632,14.38,73356.0,-0.37,-1.13,-1.13,0,*56
1505833276.23,5633,14.38,73358.8,-0.37,-1.09,-1.09,0,*57
1505833277.46,5634,14.31,73354.5,-0.37,-1.13,-1.09,0,*5B
1505833278.69,5635,14.31,73354.8,-0.37,-1.09,-1.09,0,*51
1505833279.92,5636,14.31,73348.0,-0.37,-1.09,-1.09,0,*52
1505833281.11,5637,14.31,73352.3,-0.37,-1.17,-1.17,0,*53
1505833282.3,5638,14.31,73358.3,-0.37,-1.25,-1.29,0,*50
1505833283.53,5639,14.31,73350.3,-0.37,-1.35,-1.35,0,*5D
1505833284.77,5640,14.31,73350.8,-0.37,-1.47,-1.39,0,*5A
1505833286.0,5641,14.31,73350.8,-0.37,-1.35,-1.35,0,*52
1505833287.24,5642,14.31,73356.3,-0.37,-1.35,-1.39,0,*5D
1505833288.42,5643,14.31,73358.0,-0.37,-1.25,-1.29,0,*5C
1505833289.63,5644,14.31,73352.3,-0.39,-1.25,-1.17,0,*58
1505833290.87,5645,14.31,73352.8,-0.39,-1.29,-1.35,0,*55
1505833292.08,5646,14.31,73352.3,-0.43,-1.29,-1.17,0,*5B
1505833293.29,5647,14.31,73350.5,-0.39,-1.25,-1.17,0,*5B
1505833294.5,5648,14.31,73356.3,-0.43,-1.29,-1.29,0,*58
1505833295.76,5649,14.31,73358.3,-0.39,-1.35,-1.35,0,*54
1505833297.03,5650,14.31,73352.8,-0.43,-1.43,-1.39,0,*5C
1505833298.29,5651,14.31,73356.0,-0.43,-1.43,-1.39,0,*5D
1505833299.49,5652,14.38,73354.8,-0.39,-1.59,-1.51,0,*56
1505833300.73,5653,14.31,73354.3,-0.43,-1.33,-1.39,0,*58
1505833301.94,5654,14.31,73352.3,-0.43,-1.29,-1.33,0,*5E
1505833303.14,5655,14.31,73358.5,-0.43,-1.51,-1.51,0,*54
1505833304.4,5656,14.31,73354.8,-0.43,-1.43,-1.43,0,*57
1505833305.61,5657,14.31,73356.5,-0.43,-1.33,-1.33,0,*56
1505833306.85,5658,14.31,73352.3,-0.43,-1.33,-1.39,0,*53
1505833308.06,5659,14.31,73352.8,-0.45,-1.25,-1.43,0,*5E
1505833309.25,5660,14.31,73350.3,-0.45,-1.21,-1.21,0,*54
1505833310.44,5661,14.31,73348.0,-0.45,-1.21,-1.21,0,*55
1505833311.62,5662,14.31,73346.8,-0.45,-1.25,-1.25,0,*56
1505833312.82,5663,14.31,73350.3,-0.45,-1.17,-1.21,0,*52
1505833314.03,5664,14.31,73356.5,-0.45,-1.17,-1.09,0,*5F
1505833315.29,5665,14.31,73348.8,-0.43,-1.05,-1.05,0,*57
1505833316.5,5666,14.31,73356.5,-0.43,-1.29,-1.29,0,*54
1505833317.72,5667,14.31,73358.3,-0.43,-1.17,-1.21,0,*50
1505833318.93,5668,14.38,73350.8,-0.43,-1.29,-1.33,0,*51
1505833320.14,5669,14.31,73344.3,-0.43,-1.55,-1.63,0,*5E
1505833321.34,5670,14.38,73348.8,-0.43,-1.51,-1.51,0,*53
1505833322.57,5671,14.31,73350.8,-0.45,-1.35,-1.35,0,*54
1505833323.75,5672,14.31,73350.0,-0.45,-1.25,-1.25,0,*57
1505833324.95,5673,14.31,73354.5,-0.45,-1.21,-1.21,0,*56
1505833326.18,5674,14.31,73348.3,-0.45,-1.43,-1.47,0,*55
1505833327.36,5675,14.31,73350.8,-0.45,-1.59,-1.55,0,*5C
1505833328.57,5676,14.31,73346.8,-0.45,-1.47,-1.55,0,*50
1505833329.75,5677,14.31,73344.5,-0.45,-1.59,-1.59,0,*52
1505833330.95,5678,14.31,73346.5,-0.47,-1.55,-1.59,0,*53
1505833332.15,5679,14.31,73344.5,-0.47,-1.25,-1.25,0,*5E
1505833333.37,5680,14.31,73344.5,-0.47,-1.21,-1.21,0,*58
1505833334.56,5681,14.31,73342.8,-0.45,-1.21,-1.21,0,*5B
1505833335.77,5682,14.31,73342.3,-0.47,-1.33,-1.33,0,*5A
1505833336.97,5683,14.31,73340.5,-0.47,-1.33,-1.25,0,*5C
1505833338.18,5684,14.31,73346.0,-0.47,-1.33,-1.33,0,*5C
1505833339.42,5685,14.31,73340.3,-0.47,-1.33,-1.35,0,*5B
1505833340.68,5686,14.31,73342.8,-0.47,-1.35,-1.43,0,*5F
1505833341.89,5687,14.31,73342.3,-0.45,-1.43,-1.33,0,*5A
1505833343.15,5688,14.31,73342.0,-0.47,-1.47,-1.43,0,*54
1505833344.38,5689,14.31,73344.3,-0.47,-1.79,-1.83,0,*54
1505833345.59,5690,14.31,73348.8,-0.47,-1.79,-1.79,0,*59
1505833346.85,5691,14.31,73350.5,-0.47,-1.43,-1.35,0,*59
1505833348.03,5692,14.31,73344.8,-0.45,-1.33,-1.33,0,*59
1505833349.23,5693,14.31,73344.8,-0.47,-1.59,-1.59,0,*5A
1505833350.44,5694,14.31,73348.0,-0.47,-1.59,-1.67,0,*50
1505833351.64,5695,14.31,73344.0,-0.47,-1.55,-1.55,0,*5C
1505833352.9,5696,14.31,73346.5,-0.47,-1.35,-1.43,0,*5E
1505833354.1,5697,14.38,73348.0,-0.47,-1.25,-1.25,0,*5E
1505833355.32,5698,14.31,73350.8,-0.49,-1.29,-1.35,0,*52
1505833356.57,5699,14.31,73350.8,-0.49,-1.39,-1.39,0,*5E
1505833357.78,5700,14.31,73346.8,-0.49,-1.29,-1.35,0,*52
1505833358.97,5701,14.31,73346.5,-0.49,-1.29,-1.29,0,*5E
1505833360.18,5702,14.31,73350.5,-0.49,-1.51,-1.47,0,*5A
1505833361.39,5703,14.31,73348.0,-0.51,-1.63,-1.63,0,*55
1505833362.64,5704,14.31,73354.0,-0.49,-1.47,-1.47,0,*5B
1505833363.82,5705,14.38,73352.8,-0.49,-1.51,-1.51,0,*5A
1505833365.06,5706,14.31,73354.5,-0.49,-1.47,-1.47,0,*59
1505833366.3,5707,14.31,73354.8,-0.49,-1.35,-1.39,0,*54
1505833367.54,5708,14.31,73352.8,-0.49,-1.35,-1.39,0,*5B
1505833368.74,5709,14.31,73348.3,-0.51,-1.59,-1.59,0,*5F
1505833369.93,5710,14.31,73348.0,-0.49,-1.63,-1.71,0,*5D
1505833371.2,5711,14.38,73356.3,-0.51,-1.39,-1.47,0,*5F
1505833372.38,5712,14.31,73356.5,-0.49,-1.51,-1.59,0,*54
1505833373.59,5713,14.31,73350.8,-0.51,-1.51,-1.51,0,*54
1505833374.84,5714,14.31,73350.8,-0.51,-1.83,-1.95,0,*54
1505833376.1,5715,14.31,73346.5,-0.51,-1.87,-1.95,0,*51
1505833377.32,5716,14.31,73346.8,-0.51,-1.71,-1.71,0,*51
1505833378.52,5717,14.31,73356.0,-0.51,-1.51,-1.59,0,*58
1505833379.76,5718,14.31,73350.8,-0.51,-1.35,-1.29,0,*52
1505833380.97,5719,14.31,73348.5,-0.51,-1.63,-1.71,0,*5D
1505833382.18,5720,14.31,73350.3,-0.51,-1.63,-1.63,0,*54
1505833383.39,5721,14.31,73348.0,-0.51,-1.63,-1.71,0,*56
1505833384.6,5722,14.31,73350.5,-0.51,-1.51,-1.59,0,*5E
1505833385.78,5723,14.38,73356.0,-0.53,-1.63,-1.55,0,*50
1505833386.95,5724,14.31,73350.3,-0.53,-1.51,-1.51,0,*52
1505833388.13,5725,14.31,73354.8,-0.53,-1.63,-1.63,0,*53
1505833389.32,5726,14.31,73352.5,-0.53,-1.55,-1.63,0,*55
1505833390.5,5727,14.31,73358.3,-0.53,-1.55,-1.63,0,*54
1505833391.68,5728,14.31,73350.3,-0.53,-1.63,-1.67,0,*5A
1505833392.89,5729,14.31,73352.8,-0.53,-1.43,-1.51,0,*5C
1505833394.07,5730,14.31,73348.3,-0.53,-1.55,-1.55,0,*57
1505833395.31,5731,14.31,73352.8,-0.53,-1.43,-1.43,0,*56
1505833396.54,5732,14.31,73352.0,-0.55,-1.43,-1.51,0,*50
1505833397.72,5733,14.31,73352.8,-0.53,-1.51,-1.51,0,*54
1505833398.9,5734,14.31,73350.3,-0.53,-1.75,-1.75,0,*53
1505833400.16,5735,14.31,73350.5,-0.55,-1.87,-1.87,0,*54
1505833401.42,5736,14.31,73350.5,-0.55,-1.91,-1.99,0,*5F
1505833402.68,5737,14.31,73344.5,-0.55,-1.87,-1.87,0,*56
1505833403.88,5738,14.31,73350.5,-0.55,-1.63,-1.63,0,*59
1505833405.09,5739,14.31,73352.0,-0.55,-1.55,-1.55,0,*58
1505833406.3,5740,14.31,73350.0,-0.55,-1.75,-1.79,0,*5A
1505833407.5,5741,14.31,73352.5,-0.55,-2.19,-2.15,0,*5B
1505833408.77,5742,14.31,73348.8,-0.59,-2.07,-2.07,0,*58
1505833410.01,5743,14.31,73348.5,-0.57,-2.07,-2.07,0,*57
1505833411.24,5744,14.31,73350.8,-0.57,-1.83,-1.83,0,*50
1505833412.46,5745,14.31,73344.3,-0.59,-1.79,-1.79,0,*5F
1505833413.69,5746,14.31,73350.8,-0.57,-2.03,-2.03,0,*52
1505833414.95,5747,14.31,73348.5,-0.59,-1.95,-1.95,0,*5D
1505833416.21,5748,14.31,73352.0,-0.59,-1.83,-1.91,0,*51
1505833417.42,5749,14.31,73346.5,-0.59,-1.59,-1.67,0,*5E
1505833418.64,5750,14.31,73352.8,-0.59,-1.79,-1.71,0,*53
1505833419.85,5751,14.31,73348.8,-0.59,-1.59,-1.55,0,*56
1505833421.11,5752,14.31,73354.5,-0.59,-1.35,-1.35,0,*59
1505833422.34,5753,14.31,73354.0,-0.57,-1.35,-1.35,0,*56
1505833423.56,5754,14.31,73352.8,-0.59,-1.33,-1.33,0,*5F
1505833424.77,5755,14.31,73352.5,-0.59,-1.33,-1.29,0,*55
1505833425.99,5756,14.31,73354.3,-0.59,-1.33,-1.33,0,*5D
1505833427.25,5757,14.31,73354.0,-0.59,-1.43,-1.35,0,*5D
1505833428.46,5758,14.31,73352.3,-0.57,-1.35,-1.33,0,*5B
1505833429.72,5759,14.31,73350.0,-0.55,-1.43,-1.43,0,*5E
1505833430.98,5760,14.31,73354.3,-0.59,-1.35,-1.35,0,*58
1505833432.17,5761,14.31,73358.5,-0.57,-1.33,-1.33,0,*57
1505833433.35,5762,14.31,73358.8,-0.57,-1.33,-1.33,0,*54
1505833434.59,5763,14.31,73354.5,-0.57,-1.35,-1.35,0,*55
1505833435.82,5764,14.31,73354.8,-0.57,-1.47,-1.43,0,*56
1505833437.09,5765,14.31,73354.5,-0.59,-1.43,-1.43,0,*5D
1505833438.32,5766,14.31,73356.5,-0.57,-1.35,-1.35,0,*50
1505833439.51,5767,14.31,73354.0,-0.57,-1.33,-1.33,0,*51
1505833440.74,5768,14.31,73352.3,-0.57,-1.43,-1.35,0,*5F
1505833441.98,5769,14.31,73352.5,-0.57,-1.35,-1.43,0,*5E
1505833443.21,5770,14.31,73354.5,-0.57,-1.43,-1.35,0,*56
1505833444.4,5771,14.31,73348.0,-0.57,-1.29,-1.21,0,*5E
1505833445.61,5772,14.31,73348.5,-0.55,-1.33,-1.33,0,*57
1505833446.82,5773,14.31,73354.0,-0.55,-1.33,-1.33,0,*56
1505833448.02,5774,14.31,73352.0,-0.55,-1.25,-1.29,0,*5D
1505833449.29,5775,14.31,73352.8,-0.55,-1.39,-1.39,0,*50
1505833450.5,5776,14.31,73352.3,-0.55,-1.33,-1.33,0,*53
1505833451.71,5777,14.31,73352.5,-0.55,-1.33,-1.29,0,*59
1505833452.92,5778,14.31,73352.5,-0.55,-1.33,-1.29,0,*56
1505833454.13,5779,14.31,73350.3,-0.55,-1.29,-1.29,0,*5C
1505833455.33,5780,14.31,73358.3,-0.55,-1.25,-1.29,0,*56
1505833456.52,5781,14.31,73352.0,-0.53,-1.29,-1.29,0,*5D
1505833457.73,5782,14.31,73352.8,-0.55,-1.29,-1.29,0,*58
1505833458.93,5783,14.31,73350.0,-0.55,-1.33,-1.33,0,*59
1505833460.12,5784,14.31,73352.5,-0.53,-1.33,-1.33,0,*58
1505833461.32,5785,14.31,73352.5,-0.55,-1.25,-1.17,0,*5E
1505833462.56,5786,14.31,73352.5,-0.55,-1.13,-1.17,0,*58
1505833463.75,5787,14.31,73348.8,-0.53,-1.17,-1.17,0,*5B
1505833464.95,5788,14.31,73352.0,-0.55,-1.29,-1.25,0,*5E
1505833466.19,5789,14.31,73348.5,-0.55,-1.13,-1.17,0,*57
1505833467.37,5790,14.31,73352.5,-0.53,-1.29,-1.29,0,*5D
1505833468.58,5791,14.31,73352.3,-0.55,-1.29,-1.29,0,*5A
1505833469.76,5792,14.31,73354.0,-0.53,-1.25,-1.29,0,*53
1505833470.97,5793,14.31,73354.3,-0.55,-1.29,-1.25,0,*54
1505833472.15,5794,14.31,73354.3,-0.53,-1.29,-1.29,0,*59
1505833473.34,5795,14.31,73358.3,-0.53,-1.29,-1.29,0,*58
1505833474.52,5796,14.31,73354.5,-0.53,-1.33,-1.33,0,*5B
1505833475.76,5797,14.31,73354.3,-0.55,-1.33,-1.39,0,*56
1505833476.97,5798,14.31,73358.0,-0.53,-1.39,-1.33,0,*5F
1505833478.15,5799,14.31,73360.0,-0.53,-1.33,-1.33,0,*54
1505833479.34,5800,14.31,73354.5,-0.53,-1.33,-1.33,0,*5B
1505833480.52,5801,14.31,73358.3,-0.53,-1.29,-1.33,0,*51
1505833481.7,5802,14.31,73358.0,-0.53,-1.25,-1.25,0,*59
1505833482.88,5803,14.31,73354.0,-0.53,-1.29,-1.25,0,*54
1505833484.06,5804,14.31,73358.8,-0.53,-1.25,-1.25,0,*5F
1505833485.25,5805,14.31,73360.5,-0.53,-1.29,-1.29,0,*5E
1505833486.45,5806,14.31,73360.8,-0.55,-1.29,-1.29,0,*5B
1505833487.63,5807,14.31,73360.5,-0.53,-1.25,-1.25,0,*5C
1505833488.82,5808,14.31,73356.3,-0.53,-1.29,-1.29,0,*53
1505833490.06,5809,14.31,73352.3,-0.53,-1.39,-1.39,0,*52
1505833491.27,5810,14.31,73358.0,-0.51,-1.29,-1.29,0,*58
1505833492.51,5811,14.31,73356.5,-0.53,-1.39,-1.39,0,*5B
1505833493.73,5812,14.31,73352.0,-0.53,-1.33,-1.39,0,*52
1505833494.91,5813,14.31,73352.8,-0.53,-1.33,-1.33,0,*59
1505833496.09,5814,14.31,73350.3,-0.53,-1.25,-1.29,0,*52
1505833497.32,5815,14.31,73356.0,-0.53,-1.13,-1.13,0,*5F
1505833498.5,5816,14.31,73360.0,-0.53,-1.25,-1.29,0,*50
1505833499.74,5817,14.31,73362.0,-0.55,-1.17,-1.13,0,*5F
1505833500.92,5818,14.31,73360.0,-0.53,-1.29,-1.29,0,*52
1505833502.1,5819,14.31,73358.8,-0.53,-1.55,-1.51,0,*57
1505833503.36,5820,14.31,73356.8,-0.55,-1.43,-1.43,0,*5F
1505833504.6,5821,14.31,73356.5,-0.53,-1.39,-1.39,0,*58
1505833505.78,5822,14.31,73356.3,-0.53,-1.33,-1.33,0,*5B
1505833506.97,5823,14.31,73356.0,-0.53,-1.29,-1.29,0,*5A
1505833508.18,5824,14.31,73358.5,-0.55,-1.29,-1.29,0,*5B
1505833509.36,5825,14.31,73356.8,-0.53,-1.51,-1.51,0,*5C
1505833510.62,5826,14.31,73352.8,-0.55,-1.43,-1.43,0,*59
1505833511.86,5827,14.31,73352.8,-0.53,-1.39,-1.39,0,*5E
1505833513.04,5828,14.31,73354.3,-0.53,-1.33,-1.33,0,*51
1505833514.22,5829,14.31,73350.5,-0.53,-1.29,-1.25,0,*5C
1505833515.41,5830,14.31,73352.8,-0.53,-1.29,-1.29,0,*58
1505833516.62,5831,14.31,73350.3,-0.55,-1.29,-1.29,0,*5F
1505833517.8,5832,14.31,73354.0,-0.53,-1.25,-1.25,0,*5A
1505833518.98,5833,14.31,73352.8,-0.53,-1.25,-1.25,0,*5B
1505833520.16,5834,14.31,73352.5,-0.53,-1.29,-1.29,0,*5C
1505833521.37,5835,14.31,73352.5,-0.55,-1.33,-1.33,0,*5B
1505833522.58,5836,14.31,73358.8,-0.55,-1.33,-1.33,0,*58
1505833523.76,5837,14.31,73356.3,-0.53,-1.29,-1.29,0,*5F
1505833525.0,5838,14.31,73356.8,-0.53,-1.39,-1.39,0,*50
1505833526.22,5839,14.31,73358.0,-0.53,-1.33,-1.39,0,*5B
1505833527.4,5840,14.31,73358.5,-0.53,-1.29,-1.25,0,*53
1505833528.58,5841,14.31,73358.0,-0.53,-1.29,-1.33,0,*55
1505833529.77,5842,14.31,73358.0,-0.53,-1.29,-1.29,0,*5D
1505833530.95,5843,14.31,73356.5,-0.53,-1.29,-1.29,0,*5C
1505833532.19,5844,14.31,73350.8,-0.53,-1.39,-1.39,0,*5B
1505833533.38,5845,14.31,73348.3,-0.53,-1.67,-1.63,0,*5E
1505833534.61,5846,14.31,73348.8,-0.53,-1.43,-1.43,0,*59
1505833535.79,5847,14.31,73350.0,-0.53,-1.33,-1.33,0,*58
1505833537.0,5848,14.31,73350.8,-0.55,-1.33,-1.33,0,*51
1505833538.19,5849,14.31,73354.5,-0.53,-1.29,-1.33,0,*5D
1505833539.37,5850,14.31,73356.3,-0.53,-1.29,-1.29,0,*5E
1505833540.57,5851,14.31,73362.3,-0.53,-1.51,-1.43,0,*5C
1505833541.75,5852,14.31,73356.5,-0.53,-1.51,-1.51,0,*5C
1505833542.96,5853,14.31,73358.0,-0.55,-1.55,-1.55,0,*5B
1505833544.16,5854,14.31,73358.5,-0.55,-1.51,-1.51,0,*5C
1505833545.36,5855,14.31,73358.3,-0.55,-1.51,-1.51,0,*5D
1505833546.59,5856,14.31,73354.5,-0.55,-1.43,-1.51,0,*5D
1505833547.8,5857,14.31,73356.8,-0.55,-1.33,-1.33,0,*5F
1505833549.01,5858,14.31,73352.3,-0.55,-1.63,-1.63,0,*50
1505833550.19,5859,14.31,73356.3,-0.53,-1.51,-1.51,0,*57
1505833551.39,5860,14.31,73354.0,-0.55,-1.55,-1.55,0,*5B
1505833552.58,5861,14.31,73350.0,-0.57,-1.79,-1.71,0,*50
1505833553.77,5862,14.31,73348.3,-0.57,-1.71,-1.67,0,*5C
1505833555.0,5863,14.31,73352.8,-0.55,-1.51,-1.43,0,*5B
1505833556.21,5864,14.31,73352.8,-0.55,-1.33,-1.29,0,*54
1505833557.44,5865,14.31,73354.0,-0.57,-1.35,-1.35,0,*5C
1505833558.63,5866,14.31,73354.0,-0.57,-1.29,-1.17,0,*52
1505833559.81,5867,14.31,73356.3,-0.57,-1.29,-1.33,0,*55
1505833561.02,5868,14.31,73356.8,-0.55,-1.33,-1.33,0,*53
1505833562.23,5869,14.31,73358.5,-0.55,-1.33,-1.33,0,*52
1505833563.41,5870,14.31,73358.8,-0.53,-1.33,-1.29,0,*57
1505833564.6,5871,14.31,73362.8,-0.53,-1.33,-1.29,0,*56
1505833565.81,5872,14.31,73360.5,-0.55,-1.33,-1.29,0,*53
1505833567.02,5873,14.31,73362.3,-0.55,-1.33,-1.29,0,*52
1505833568.23,5874,14.31,73362.0,-0.55,-1.33,-1.33,0,*5E
1505833569.49,5875,14.31,73360.3,-0.55,-1.39,-1.39,0,*5F
1505833570.7,5876,14.31,73360.0,-0.55,-1.33,-1.33,0,*5C
1505833571.88,5877,14.31,73364.3,-0.53,-1.33,-1.33,0,*5B
1505833573.12,5878,14.31,73362.3,-0.57,-1.35,-1.35,0,*50
1505833574.37,5879,14.31,73366.8,-0.55,-1.13,-1.13,0,*53
1505833575.63,5880,14.31,73364.3,-0.55,-1.05,-1.01,0,*51
1505833576.86,5881,14.31,73362.0,-0.55,-1.17,-1.13,0,*50
1505833578.05,5882,14.31,73362.0,-0.53,-1.29,-1.17,0,*5C
1505833579.31,5883,14.31,73360.8,-0.55,-1.05,-1.05,0,*56
1505833580.54,5884,14.31,73366.0,-0.53,-1.05,-1.13,0,*50
1505833581.77,5885,14.31,73364.8,-0.55,-1.17,-1.13,0,*54
1505833583.01,5886,14.31,73366.0,-0.53,-1.05,-1.05,0,*55
1505833584.26,5887,14.31,73366.0,-0.51,-0.97,-0.97,0,*56
1505833585.52,5888,14.31,73366.3,-0.51,-1.13,-1.09,0,*52
1505833586.77,5889,14.31,73364.5,-0.51,-1.01,-0.97,0,*66
1505833588.03,5890,14.31,73366.5,-0.51,-0.97,-0.97,0,*50
1505833589.28,5891,14.31,73364.5,-0.51,-1.01,-0.97,0,*6F
1505833590.52,5892,14.31,73360.3,-0.51,-1.13,-1.21,0,*53
1505833591.76,5893,14.31,73364.3,-0.51,-1.13,-1.21,0,*52
1505833593.0,5894,14.31,73364.5,-0.51,-1.09,-1.21,0,*5E
1505833594.25,5895,14.31,73360.0,-0.51,-0.97,-1.09,0,*63
1505833595.48,5896,14.31,73358.3,-0.49,-1.13,-1.13,0,*5F
1505833596.72,5897,14.31,73360.3,-0.51,-1.21,-1.13,0,*56
1505833597.95,5898,14.31,73358.5,-0.51,-1.25,-1.13,0,*5D
1505833599.21,5899,14.31,73362.3,-0.51,-1.13,-1.13,0,*59
1505833600.44,5900,14.31,73366.8,-0.49,-1.13,-1.13,0,*51
1505833601.65,5901,14.31,73362.0,-0.51,-1.21,-1.25,0,*5D
1505833602.84,5902,14.31,73360.5,-0.49,-1.21,-1.25,0,*57
1505833604.05,5903,14.31,73362.8,-0.51,-1.25,-1.21,0,*5F
1505833605.27,5904,14.31,73366.8,-0.51,-1.21,-1.21,0,*5C
1505833606.53,5905,14.31,73360.8,-0.51,-0.97,-1.09,0,*6B
1505833607.78,5906,14.31,73360.0,-0.51,-0.97,-1.01,0,*60
1505833609.03,5907,14.31,73358.0,-0.51,-0.89,-0.97,0,*50
1505833610.29,5908,14.31,73358.5,-0.51,-1.01,-1.01,0,*50
1505833611.52,5909,14.31,73362.8,-0.49,-0.97,-0.89,0,*57
1505833612.75,5910,14.31,73360.5,-0.49,-1.09,-1.09,0,*50
1505833613.98,5911,14.31,73356.5,-0.49,-1.01,-0.97,0,*6F
1505833615.21,5912,14.31,73362.5,-0.49,-1.01,-0.97,0,*6C
1505833616.44,5913,14.31,73356.8,-0.49,-1.01,-0.97,0,*6D
1505833617.67,5914,14.31,73360.8,-0.49,-0.89,-0.89,0,*54
1505833618.9,5915,14.31,73358.0,-0.49,-1.01,-0.97,0,*6B
1505833620.13,5916,14.31,73354.5,-0.49,-1.13,-1.01,0,*55
1505833621.35,5917,14.31,73354.3,-0.49,-1.13,-1.21,0,*56
1505833622.54,5918,14.31,73356.8,-0.49,-1.21,-1.21,0,*58
1505833623.74,5919,14.31,73354.3,-0.49,-1.21,-1.21,0,*59
1505833624.93,5920,14.31,73356.0,-0.49,-1.21,-1.21,0,*53
1505833626.17,5921,14.31,73356.3,-0.49,-1.13,-1.09,0,*59
1505833627.41,5922,14.31,73360.8,-0.47,-0.93,-0.85,0,*58
1505833628.63,5923,14.31,73360.3,-0.47,-0.85,-0.81,0,*5A
1505833629.87,5924,14.31,73358.5,-0.47,-0.93,-0.85,0,*5E
1505833631.11,5925,14.31,73360.3,-0.47,-0.93,-0.93,0,*58
1505833632.36,5926,14.31,73358.3,-0.47,-0.85,-0.93,0,*5C
1505833633.6,5927,14.31,73358.0,-0.47,-0.93,-0.97,0,*5E
1505833634.82,5928,14.31,73360.5,-0.45,-0.97,-0.93,0,*53
1505833636.06,5929,14.31,73362.5,-0.47,-0.93,-0.93,0,*54
1505833637.29,5930,14.31,73358.0,-0.45,-0.97,-0.93,0,*5A
1505833638.53,5931,14.31,73356.3,-0.47,-0.93,-0.85,0,*5A
1505833639.79,5932,14.31,73356.0,-0.47,-1.05,-1.09,0,*52
1505833641.04,5933,14.31,73354.8,-0.47,-1.09,-1.05,0,*53
1505833642.24,5934,14.31,73358.3,-0.45,-1.17,-1.21,0,*5F
1505833643.47,5935,14.31,73350.0,-0.45,-1.09,-1.09,0,*5B
1505833644.7,5936,14.31,73354.5,-0.47,-0.93,-0.93,0,*5A
1505833645.95,5937,14.31,73350.8,-0.47,-0.97,-0.93,0,*5F
1505833647.21,5938,14.31,73358.0,-0.47,-1.05,-0.97,0,*6E
1505833648.43,5939,14.31,73358.0,-0.45,-0.97,-0.97,0,*57
1505833649.67,5940,14.31,73362.8,-0.47,-0.93,-0.97,0,*5F
1505833650.9,5941,14.31,73354.5,-0.45,-0.97,-1.09,0,*6E
1505833652.09,5942,14.31,73356.0,-0.45,-1.17,-1.21,0,*5E
1505833653.29,5943,14.31,73352.0,-0.45,-1.17,-1.21,0,*5F
1505833654.5,5944,14.31,73354.8,-0.47,-1.17,-1.17,0,*5F
1505833655.69,5945,14.31,73354.0,-0.45,-1.17,-1.21,0,*59
1505833656.91,5946,14.31,73354.3,-0.47,-1.17,-1.17,0,*5D
1505833658.09,5947,14.31,73352.5,-0.45,-1.21,-1.17,0,*5B
1505833659.35,5948,14.31,73356.0,-0.47,-1.05,-0.97,0,*69
1505833660.59,5949,14.31,73358.8,-0.45,-1.05,-1.05,0,*50
1505833661.83,5950,14.31,73350.3,-0.45,-1.05,-1.05,0,*58
1505833663.04,5951,14.31,73354.3,-0.45,-0.93,-0.97,0,*5D
1505833664.27,5952,14.31,73354.5,-0.45,-0.97,-0.97,0,*5A
1505833665.5,5953,14.31,73354.8,-0.45,-1.05,-0.97,0,*61
1505833666.75,5954,14.31,73358.3,-0.47,-0.97,-0.97,0,*5E
1505833668.0,5955,14.31,73360.0,-0.43,-1.01,-0.93,0,*61
1505833669.25,5956,14.31,73358.8,-0.43,-1.01,-0.93,0,*62
1505833670.48,5957,14.31,73362.5,-0.45,-1.09,-1.09,0,*5F
1505833671.71,5958,14.31,73360.0,-0.45,-1.09,-1.09,0,*50
1505833672.95,5959,14.31,73360.8,-0.43,-0.93,-1.01,0,*6D
1505833674.2,5960,14.31,73362.8,-0.43,-0.89,-0.89,0,*5D
1505833675.46,5961,14.31,73362.0,-0.43,-1.01,-1.05,0,*58
1505833676.72,5962,14.31,73366.5,-0.39,-1.01,-1.01,0,*52
1505833677.96,5963,14.31,73364.5,-0.43,-0.89,-0.93,0,*55
1505833679.21,5964,14.31,73362.0,-0.43,-0.89,-0.89,0,*59
1505833680.45,5965,14.31,73360.8,-0.43,-0.93,-0.89,0,*53
1505833681.71,5966,14.31,73366.3,-0.43,-1.01,-1.05,0,*5F
1505833682.96,5967,14.31,73364.8,-0.43,-1.01,-1.01,0,*5A
1505833684.21,5968,14.31,73360.5,-0.43,-0.93,-1.01,0,*6F
1505833685.41,5969,14.31,73360.5,-0.43,-0.81,-0.81,0,*54
1505833686.67,5970,14.31,73356.8,-0.43,-1.05,-1.01,0,*58
1505833687.91,5971,14.31,73358.5,-0.43,-1.17,-1.13,0,*59
1505833689.16,5972,14.31,73358.5,-0.43,-1.13,-1.01,0,*5D
1505833690.42,5973,14.31,73356.3,-0.43,-1.01,-1.01,0,*5F
1505833691.68,5974,14.31,73360.8,-0.39,-1.13,-1.09,0,*5E
1505833692.93,5975,14.31,73358.5,-0.39,-1.09,-1.09,0,*54
1505833694.19,5976,14.31,73360.5,-0.43,-1.13,-1.13,0,*5A
1505833695.44,5977,14.31,73360.3,-0.43,-1.01,-1.01,0,*5B
1505833696.7,5978,14.31,73360.5,-0.39,-1.09,-1.09,0,*59
1505833697.95,5979,14.31,73356.8,-0.43,-1.13,-1.13,0,*55
1505833699.2,5980,14.31,73356.0,-0.43,-1.13,-1.13,0,*53
1505833700.42,5981,14.31,73356.8,-0.43,-1.17,-1.17,0,*52
1505833701.61,5982,14.31,73360.5,-0.45,-1.21,-1.17,0,*52
1505833702.79,5983,14.31,73358.5,-0.45,-1.21,-1.17,0,*53
1505833704.01,5984,14.31,73360.8,-0.43,-1.21,-1.21,0,*57
1505833705.19,5985,14.31,73360.3,-0.45,-1.33,-1.25,0,*57
1505833706.41,5986,14.31,73358.0,-0.43,-1.29,-1.21,0,*5D
1505833707.6,5987,14.31,73362.5,-0.45,-1.17,-1.17,0,*52
1505833708.84,5988,14.31,73358.5,-0.45,-1.05,-1.05,0,*5D
1505833710.08,5989,14.31,73358.5,-0.45,-1.05,-1.05,0,*5C
1505833711.31,5990,14.31,73358.5,-0.45,-0.97,-1.05,0,*6E
1505833712.53,5991,14.31,73358.0,-0.45,-0.93,-0.93,0,*55
1505833713.75,5992,14.31,73364.3,-0.43,-0.89,-0.81,0,*58